DateTimeUTC,F1_A11,F1_S11,BsB_S11,BsG_S11,BsR_S11,BbsB_S11,BbsG_S11,BbsR_S11,BaB_A11,BaG_A11,BaR_A11,Tu_S11,T_S11,Uu_S11,U_S11,P_S11,T1_A11
2021-07-19T12:00:00Z,00000200,20000000,,,,,,,-000.44,-000.35,0000.20,18.8,25.2,12.9,08.7,0674.9,31.0
2021-07-19T12:01:00Z,00000200,20000000,,,,,,,0000.38,0000.31,-000.28,18.8,25.2,12.9,08.7,0674.9,31.0
2021-07-19T12:02:00Z,00000200,20000000,,,,,,,0000.18,-000.17,0000.33,18.8,25.2,12.9,08.7,0674.9,31.0
2021-07-19T12:03:00Z,00000200,60000000,,,,,,,0000.26,0000.42,0000.35,18.8,25.2,12.9,08.7,0674.9,31.0
2021-07-19T12:04:00Z,00000200,40000000,-000.39,0000.06,0000.05,0000.07,0000.15,-000.05,-000.14,0000.06,-000.10,18.8,25.1,13.0,08.9,0675.8,31.0
2021-07-19T12:05:00Z,00000200,00000000,0000.19,0000.19,0000.21,0000.23,-000.04,0000.12,-000.04,-000.13,0000.21,18.9,25.1,13.1,08.9,0675.9,31.0
2021-07-19T12:06:00Z,00000200,00000000,0000.37,0000.21,0000.44,-000.40,0000.13,0000.01,-000.02,0000.16,-000.26,18.9,25.0,13.1,09.0,0675.9,31.0
2021-07-19T12:07:00Z,00000200,00000000,0000.45,0000.27,0000.12,0000.16,0000.17,-000.11,0000.17,0000.17,0000.22,18.9,25.0,13.2,09.1,0675.9,31.0
2021-07-19T12:08:00Z,00000200,00000000,0000.38,0000.38,-000.08,-000.82,0000.08,-000.20,0000.08,-000.22,0000.00,18.9,25.0,13.2,09.1,0675.9,31.0
2021-07-19T12:09:00Z,00000200,00000000,0000.09,0000.49,0000.07,-000.32,0000.34,0000.05,0000.04,0000.17,-000.10,18.9,25.0,13.3,09.1,0675.9,31.1
2021-07-19T12:10:00Z,00000200,00000000,-000.02,0000.24,0000.19,-000.04,0000.18,0000.28,0000.10,-000.26,-000.07,18.9,25.0,13.2,09.1,0675.9,31.0
2021-07-19T12:11:00Z,00000200,00000000,-000.37,0000.27,0000.08,0000.00,0000.22,0000.03,-000.14,0000.03,-000.09,18.9,25.1,13.2,09.1,0675.9,31.0
2021-07-19T12:12:00Z,00000200,00000000,0000.01,0000.43,0000.11,-000.33,0000.19,-000.03,-000.19,0000.34,0000.39,18.9,25.0,13.3,09.1,0675.9,31.0
2021-07-19T12:13:00Z,00000200,00000000,0000.42,0000.18,0000.33,-000.37,0000.17,0000.23,0000.31,-000.06,-000.26,19.0,25.1,13.2,09.1,0675.9,31.0
2021-07-19T12:14:00Z,00000200,00000000,0000.13,0000.40,0000.06,-000.40,0000.29,-000.23,-000.08,-000.03,0000.35,19.0,25.1,13.3,09.1,0675.9,31.0
2021-07-19T12:15:00Z,00000200,00000000,0000.44,0000.64,-000.00,-001.05,0000.25,0000.27,0000.11,-000.03,-000.38,19.0,25.1,13.3,09.2,0675.9,31.0
2021-07-19T12:16:00Z,00000200,00000000,0000.09,0000.09,0000.55,-000.66,0000.13,0000.12,-000.33,-000.05,0000.19,19.0,25.1,13.3,09.2,0675.9,31.0
2021-07-19T12:17:00Z,00000200,00000000,0000.50,0000.22,0000.08,-000.48,0000.33,0000.04,0000.13,0000.22,-000.11,19.0,25.1,13.4,09.3,0675.9,31.1
2021-07-19T12:18:00Z,00000200,00000000,-000.15,0000.29,0000.11,-000.20,0000.25,0000.39,0000.12,-000.17,0000.19,19.0,25.1,13.4,09.2,0675.9,31.1
2021-07-19T12:19:00Z,00000200,00000000,-000.45,0000.26,-000.06,-000.59,0000.30,-000.20,0000.11,0000.04,0000.17,19.0,25.1,13.4,09.2,0675.9,31.0
2021-07-19T12:20:00Z,00000200,00000000,-000.46,0000.06,0000.49,-000.54,0000.19,-000.25,-000.06,-000.10,-000.25,19.0,25.0,13.3,09.2,0675.9,31.1
2021-07-19T12:21:00Z,00000200,00000000,0000.26,-000.02,0000.08,-000.71,0000.35,-000.00,0000.05,0000.15,-000.23,19.0,25.1,13.3,09.2,0675.9,31.1
2021-07-19T12:22:00Z,00000200,00000000,0000.09,0000.34,-000.08,-000.68,0000.36,-000.08,-000.10,0000.05,0000.26,19.0,25.0,13.4,09.2,0675.9,31.1
2021-07-19T12:23:00Z,00000200,00000000,0000.99,0000.29,0000.26,-000.14,0000.19,0000.28,-000.05,-000.04,0000.10,19.0,25.1,13.3,09.2,0675.9,31.1
2021-07-19T12:24:00Z,00000200,00000000,0000.39,0000.08,0000.05,-000.08,0000.22,0000.03,0000.41,0000.14,0000.14,19.0,25.1,13.2,09.1,0675.8,31.1
2021-07-19T12:25:00Z,00000200,00000000,-000.14,0000.22,-000.01,-000.43,0000.03,0000.17,-000.03,-000.13,-000.15,19.0,25.1,13.3,09.2,0675.9,31.0
2021-07-19T12:26:00Z,00000200,00000000,-000.25,0000.44,0000.02,-000.23,0000.47,-000.12,-000.06,0000.20,0000.08,19.0,25.1,13.3,09.2,0675.9,31.0
2021-07-19T12:27:00Z,00000200,00000000,-000.32,0000.00,-000.11,-000.75,-000.00,-000.17,0000.28,0000.09,0000.21,19.1,25.1,13.3,09.2,0675.9,31.0
2021-07-19T12:28:00Z,00000200,00000000,0000.79,0000.19,-000.22,-000.15,0000.50,-000.24,-000.20,0000.15,-000.23,19.1,25.1,13.5,09.3,0675.9,31.0
2021-07-19T12:29:00Z,00000200,00000000,-000.41,0000.26,-000.05,-000.10,0000.16,0000.06,0000.23,-000.20,0000.25,19.1,25.1,13.5,09.3,0675.9,31.0
2021-07-19T12:30:00Z,00000200,00000000,0000.07,0000.47,-000.34,-000.91,0000.39,-000.22,0000.24,0000.32,0000.03,19.1,25.1,13.5,09.3,0675.8,31.0
2021-07-19T12:31:00Z,00000200,00000000,0000.63,0000.32,0000.37,0000.27,0000.12,-000.26,-000.02,-000.06,0000.03,19.1,25.1,13.7,09.5,0675.9,31.0
2021-07-19T12:32:00Z,00000200,00000000,-000.50,0000.11,0000.27,-000.20,0000.03,-000.16,-000.27,-000.25,-000.18,19.1,25.1,13.6,09.4,0675.8,31.0
2021-07-19T12:33:00Z,00000200,00000000,-000.04,0000.16,0000.25,0000.21,0000.23,0000.25,-000.17,-000.06,0000.16,19.1,25.1,13.4,09.3,0675.8,31.1
2021-07-19T12:34:00Z,00000200,00000000,-000.25,0000.17,0000.00,-000.24,0000.29,-000.02,0000.21,0000.01,0000.02,19.1,25.1,13.5,09.3,0675.8,31.1
2021-07-19T12:35:00Z,00000200,00000000,0000.15,0000.39,0000.04,-000.14,0000.11,0000.03,0000.04,0000.45,-000.16,19.1,25.1,13.5,09.3,0675.9,31.0
2021-07-19T12:36:00Z,00000200,00000000,0000.40,0000.06,0000.05,-000.37,-000.05,-000.05,0000.17,-000.21,0000.12,19.1,25.1,13.6,09.4,0675.9,31.0
2021-07-19T12:37:00Z,00000200,00000000,0000.39,0000.24,0000.12,0000.31,0000.13,0000.07,0000.03,0000.02,0000.05,19.1,25.1,13.5,09.3,0675.9,31.1
2021-07-19T12:38:00Z,00000200,00000000,0000.01,-000.15,-000.07,-000.79,0000.22,-000.05,-000.32,-000.35,-000.14,19.1,25.1,13.4,09.3,0675.9,31.1
2021-07-19T12:39:00Z,00000200,00000000,0000.01,-000.00,0000.02,0000.17,0000.01,0000.22,0000.28,0000.40,0000.18,19.1,25.2,13.7,09.5,0675.9,31.1
2021-07-19T12:40:00Z,00000200,00000000,0000.55,0000.17,0000.15,-000.07,0000.35,0000.44,0000.03,0000.07,0000.00,19.1,25.1,13.5,09.4,0675.9,31.0
2021-07-19T12:41:00Z,00000200,00000000,0000.32,0000.36,0000.46,-000.77,0000.29,0000.20,0000.04,-000.02,0000.25,19.2,25.1,13.6,09.4,0675.9,31.1
2021-07-19T12:42:00Z,00000200,00000000,0000.40,0000.15,-000.05,-000.62,0000.06,0000.05,0000.04,-000.07,-000.11,19.1,25.1,13.7,09.5,0675.9,31.1
2021-07-19T12:43:00Z,00000200,00000000,0000.33,0000.11,-000.09,-000.27,-000.09,-000.12,0000.01,0000.01,0000.04,19.2,25.1,13.7,09.5,0675.9,31.0
2021-07-19T12:44:00Z,00000200,00000000,0000.52,0000.69,0000.04,-000.52,0000.26,-000.31,0000.12,-000.03,0000.00,19.2,25.2,13.7,09.5,0675.9,31.1
2021-07-19T12:45:00Z,00000200,00000000,-000.41,0000.25,0000.04,-001.16,-000.00,-000.36,0000.05,0000.20,0000.12,19.2,25.1,13.7,09.5,0675.9,31.0
2021-07-19T12:46:00Z,00000200,00000000,0000.16,0000.05,0000.24,-000.38,0000.12,0000.28,-000.35,0000.00,0000.13,19.2,25.2,13.8,09.6,0675.9,31.1
2021-07-19T12:47:00Z,00000200,00000000,-000.36,0000.62,-000.08,-000.31,0000.11,-000.01,0000.22,-000.12,-000.17,19.2,25.2,13.7,09.5,0675.9,31.1
2021-07-19T12:48:00Z,00000200,00000000,0000.50,0000.32,0000.11,-000.49,0000.13,-000.09,-000.05,-000.01,-000.12,19.2,25.2,13.7,09.5,0675.9,31.0
2021-07-19T12:49:00Z,00000200,00000000,-000.13,0000.26,0000.11,-000.16,0000.32,0000.05,-000.20,0000.04,0000.16,19.2,25.2,13.7,09.5,0675.8,31.0
2021-07-19T12:50:00Z,00000200,00000000,0000.69,0000.33,0000.03,0000.22,0000.08,-000.16,0000.38,0000.22,-000.27,19.2,25.2,13.8,09.6,0675.9,31.1
2021-07-19T12:51:00Z,00000200,00000000,-000.47,0000.16,0000.55,0000.05,0000.12,0000.30,-000.07,-000.24,0000.27,19.2,25.2,13.7,09.6,0675.8,31.1
2021-07-19T12:52:00Z,00000200,00000000,0000.27,0000.29,-000.01,-000.14,0000.14,0000.12,-000.25,0000.37,-000.02,19.2,25.2,13.9,09.6,0675.8,31.1
2021-07-19T12:53:00Z,00000200,00000000,0000.03,0000.56,0000.13,0000.40,0000.23,0000.12,0000.03,-000.33,-000.10,19.2,25.2,13.7,09.6,0675.8,31.0
2021-07-19T12:54:00Z,00000200,00000000,0000.34,0000.06,0000.32,-000.23,-000.15,0000.15,0000.14,0000.01,0000.12,19.2,25.2,13.8,09.6,0675.8,31.1
2021-07-19T12:55:00Z,00000200,00000000,-000.25,0000.44,0000.19,-000.09,0000.15,0000.50,-000.29,0000.16,0000.18,19.3,25.2,13.8,09.6,0675.8,31.1
2021-07-19T12:56:00Z,00000200,00000000,-000.47,0000.03,0000.12,-000.80,0000.19,0000.08,0000.06,0000.06,-000.12,19.2,25.2,14.0,09.7,0675.8,31.1
2021-07-19T12:57:00Z,00000200,40000000,,,,,,,0000.26,-000.18,-000.18,19.3,25.3,14.4,10.0,0675.8,31.1
2021-07-19T12:58:00Z,00000200,60000000,,,,,,,-000.03,0000.24,0000.02,19.1,25.3,14.0,09.5,0674.8,31.1
2021-07-19T12:59:00Z,00000200,20000000,,,,,,,0000.06,-000.04,0000.15,19.1,25.4,14.0,09.5,0674.8,31.1
